Time,TemperatureF,DewpointF,PressureIn,WindDirection,WindDirectionDegrees,WindSpeedMPH,WindSpeedGustMPH,Humidity,HourlyPrecipIn,Conditions,Clouds,dailyrainin,SoftwareType,DateUTC
2013-07-05 00:59:00,67.2,66.6,30.08,WNW,284,0.0,8.0,98,0.07,OVC,,0.07,WeatherDisplay:10.37,2013-07-05 04:59:00,
2013-07-05 01:59:00,68.1,67.2,30.07,SSW,206,1.0,5.0,97,0.01,OVC,,0.08,WeatherDisplay:10.37,2013-07-05 05:59:00,
2013-07-05 02:59:00,67.2,65.7,30.06,SSW,198,0.0,9.0,95,0.00,OVC,,0.08,WeatherDisplay:10.37,2013-07-05 06:59:00,
2013-07-05 03:59:00,67.9,66.1,30.06,SSW,213,0.0,9.0,94,0.00,-DZ,,0.08,WeatherDisplay:10.37,2013-07-05 07:59:00,
2013-07-05 04:59:00,68.1,65.7,30.06,SW,219,0.0,12.0,92,0.00,OVC,,0.08,WeatherDisplay:10.37,2013-07-05 08:59:00,
2013-07-05 07:59:00,68.6,66.5,30.10,ESE,120,1.0,4.0,93,0.00,OVC,,0.08,WeatherDisplay:10.37,2013-07-05 11:59:00,
2013-07-05 10:59:00,71.2,69.0,30.12,ENE,59,0.0,3.0,93,0.00,OVC,,0.08,WeatherDisplay:10.37,2013-07-05 14:59:00,
2013-07-05 11:59:00,72.1,68.0,30.13,SSW,201,5.0,6.0,87,0.01,-RA,,0.09,WeatherDisplay:10.37,2013-07-05 15:59:00,
2013-07-05 12:59:00,72.4,68.6,30.13,South,173,0.0,5.0,88,0.00,-RA,,0.09,WeatherDisplay:10.37,2013-07-05 16:59:00,
2013-07-05 13:59:00,73.3,70.2,30.13,NNE,30,0.0,4.0,90,0.00,-RA,,0.09,WeatherDisplay:10.37,2013-07-05 17:59:00,
2013-07-05 15:00:00,72.6,69.5,30.13,SSE,161,0.0,3.0,90,0.00,OVC,,0.09,WeatherDisplay:10.37,2013-07-05 19:00:00,
2013-07-05 15:59:00,73.9,69.4,30.10,NE,53,0.0,3.0,86,0.01,OVC,,0.10,WeatherDisplay:10.37,2013-07-05 19:59:00,
2013-07-05 16:59:00,74.6,70.2,30.09,North,10,0.0,3.0,86,0.00,SCT,,0.10,WeatherDisplay:10.37,2013-07-05 20:59:00,
2013-07-05 17:59:00,74.4,70.3,30.07,North,10,0.0,1.0,87,0.00,SCT,,0.10,WeatherDisplay:10.37,2013-07-05 21:59:00,
2013-07-05 18:59:00,73.1,70.3,30.07,NNW,336,0.0,1.0,91,0.00,CLR,,0.10,WeatherDisplay:10.37,2013-07-05 22:59:00,
2013-07-05 19:59:00,70.1,69.2,30.10,South,181,0.0,4.0,97,0.03,OVC,,0.13,WeatherDisplay:10.37,2013-07-05 23:59:00,
2013-07-05 20:59:00,68.5,68.0,30.09,SSE,163,0.0,1.0,98,0.01,-RA,,0.14,WeatherDisplay:10.37,2013-07-06 00:59:00,
2013-07-05 21:59:00,67.9,67.6,30.09,South,172,0.0,2.0,99,0.01,OVC,,0.15,WeatherDisplay:10.37,2013-07-06 01:59:00,
2013-07-05 22:59:00,68.1,67.8,30.09,East,82,0.0,2.0,99,0.00,OVC,,0.15,WeatherDisplay:10.37,2013-07-06 02:59:00,
2013-07-05 23:59:00,67.9,67.6,30.09,East,80,0.0,1.0,99,0.02,-RA,,0.00,WeatherDisplay:10.37,2013-07-06 03:59:00,